Location: Unspecified
(0.0000°N, 0.0000°E)
Time: 08:57:49
(UTC+00:00)

A-11 Canister half - Pass Details

Date: 14 June 2024
Orbit: 1515 x 1684 km, 47.2° (Epoch: 23 July)

Event Time Altitude Azimuth Distance (km) Brightness Sun altitude
Rises 02:50:20 0° 348° (NNW) 4,690 11.7 -42.6°
Reaches altitude 10° 02:54:42 10° 5° (N) 3,688 11.3 -41.7°
Maximum altitude 03:00:44 19° 47° (NE) 3,025 11.0 -40.4°
Drops below altitude 10° 03:06:42 10° 88° (E) 3,668 11.5 -39.1°
Sets 03:10:57 0° 105° (ESE) 4,657 12.0 -38.2°
